Home   Weather   Recife   Past weeks
Flag for Brazil

Past Weather in Recife, Pernambuco, Brazil — Yesterday and Last 2 Weeks

Now
81 °F

Broken clouds.


Feels Like: 85 °F
Forecast: N/A
Wind: 8 mph from East

Location: Recife Aeroporto

Current Time: Jun 26, 2019 at 5:19:13 pm

Latest Report: Jun 26, 2019 at 4:00 pm


Visibility: N/A

Pressure: 29.98 "Hg

Humidity: 79%

Dew Point: 73 °F

Location of RecifeLocation

Past Weather in Recife — Graph

°F

Recife Temperature Yesterday

Maximum temperature yesterday: 82 °F (at 11:00 am)
Minimum temperature yesterday: 72 °F (at 5:00 am)
Average temperature yesterday: 78 °F

High & Low Weather Summary for the Past Weeks

 TemperatureHumidityPressure
High84 °F (Jun 12, 1:00 pm)100% (Jun 13, 8:20 am)30.12 "Hg (Jun 13, 8:20 am)
Low72 °F (Jun 16, 6:00 am)20% (Jun 13, 3:00 pm)29.92 "Hg (Jun 11, 4:00 pm)
Average78 °F79%30.01 "Hg
* Reported Jun 11 4:00 pm — Jun 26 4:00 pm, Recife. Weather by CustomWeather, © 2019

Note: Actual official high and low records may vary slightly from our data, if they occured in-between our weather recording intervals... More about our weather records

Advertising

Recife Weather History for the Previous 24 Hours

Scroll right to see more
 ConditionsComfort  
Time TempWeatherWind HumidityBarometerVisibility
4:00 pm
Wed, Jun 26
81 °FBroken clouds.8 mph79%29.98 "HgN/A
3:00 pm82 °FScattered showers. Broken clouds.12 mph66%29.98 "HgN/A
2:00 pm82 °FPartly sunny.7 mph70%29.98 "HgN/A
1:00 pm82 °FPartly sunny.8 mph70%29.98 "HgN/A
12:00 pm82 °FPartly sunny.10 mph74%30.01 "HgN/A
11:00 am79 °FBroken clouds.6 mph79%30.01 "HgN/A
10:00 am79 °FScattered showers. Scattered clouds.6 mph84%30.04 "Hg6 mi
9:00 am77 °FScattered showers. Broken clouds.6 mph89%N/AN/A
8:14 am75 °FScattered showers. Broken clouds.5 mph89%30.04 "HgN/A
8:00 am73 °FSprinkles. Partly sunny.3 mph94%30.04 "Hg2 mi
7:10 am73 °FSprinkles. Partly sunny.5 mph89%N/A2 mi
7:00 am73 °FScattered showers. Partly sunny.2 mph89%30.01 "Hg5 mi
6:00 am72 °FPartly sunny.No wind88%29.98 "HgN/A
5:00 am72 °FPassing clouds.3 mph88%29.98 "HgN/A
4:00 am73 °FPassing clouds.3 mph89%29.98 "HgN/A
3:00 am72 °FPassing clouds.2 mph88%29.95 "HgN/A
2:00 am73 °FPassing clouds.2 mph89%29.98 "HgN/A
1:00 am75 °FPassing clouds.6 mph83%29.98 "HgN/A
12:00 am75 °FPartly cloudy.3 mph83%30.01 "HgN/A
11:00 pm
Tue, Jun 25
79 °FPassing clouds.9 mph74%30.01 "HgN/A
10:00 pm79 °FPassing clouds.8 mph70%30.01 "HgN/A
9:00 pm79 °FPassing clouds.8 mph70%30.01 "HgN/A
8:00 pm79 °FPassing clouds.7 mph74%29.98 "HgN/A
7:00 pm79 °FClear.10 mph70%29.98 "Hg10 mi
6:00 pm81 °FClear.12 mph66%29.95 "Hg10 mi
5:00 pm81 °FPassing clouds.9 mph66%29.95 "HgN/A
Weather by CustomWeather, © 2019

See weather overview